Tyler, TX

6:39 PM CST on January 21, 2017 (GMT -0600)
Tyler

Weather History for KTYR - July, 2013

Change the Weather History Date:

Tuesday, July 16, 2013

  Actual Average Record
Temperature  
Mean Temperature 81 °F 83 °F  
Max Temperature 90 °F 93 °F 107 °F (1978)
Min Temperature 71 °F 73 °F 52 °F (1967)
Degree Days  
Heating Degree Days 0 0  
Month to date heating degree days 0 0  
Since 1 June heating degree days 0 0  
Since 1 July heating degree days 0 0  
Cooling Degree Days 16 18  
Month to date cooling degree days 278 279  
Year to date cooling degree days 1187 1081  
Since 1 June cooling degree days 790 712  
Growing Degree Days 30 (Base 50)    
Moisture  
Dew Point 70 °F    
Average Humidity 74    
Maximum Humidity 93    
Minimum Humidity 55    
Precipitation  
Precipitation 0.24 in 0.07 in 3.32 in (1955)
Month to date precipitation 3.02 1.76  
Year to date precipitation 19.03 25.52  
Snow  
Snow 0.00 in - - ()
Month to date snowfall 0.0  
Since 1 June snowfall 0.0  
Since 1 July snowfall 0.0  
Snow Depth 0.00 in    
Sea Level Pressure  
Sea Level Pressure 30.14 in    
Wind  
Wind Speed 6 mph (East)    
Max Wind Speed 26 mph    
Max Gust Speed 35 mph    
Visibility 10 miles    
Events Rain , Thunderstorm    
T = Trace of Precipitation, MM = Missing Value Source: NWS Daily Summary

Daily Weather History Graph

Daily Weather History Graph

Search for Another Location

Airport or City:

Trip Planner

Search our weather history database for the weather conditions in past years. The results will help you decide how hot, cold, wet, or windy it might be!

Date:

Astronomy

Jul. 16, 2013 Rise Set
Actual Time 6:26 AM CDT 8:28 PM CDT
Civil Twilight 5:58 AM CDT 8:56 PM CDT
Nautical Twilight 5:24 AM CDT 9:30 PM CDT
Astronomical Twilight 4:48 AM CDT 10:06 PM CDT
Moon 2:19 PM CDT (7/16) 12:46 AM CDT (7/16)
Length of Visible Light 14h 58m
Length of Day
14h 02m
First Quarter, 56% of the Moon is Illuminated
Jul 16
First Quarter
Jul 22
Full
Jul 29
Last Quarter
Aug 6
New
Aug 14
First Quarter

Hourly Weather History & Observations

Time (CDT) Temp. Heat Index Dew Point Humidity Pressure Visibility Wind Dir Wind Speed Gust Speed Precip Events Conditions
12:53 AM 73.0 °F - 69.1 °F 87% 30.10 in 10.0 mi East 6.9 mph - N/A   Clear
1:53 AM 73.0 °F - 69.1 °F 87% 30.10 in 10.0 mi East 4.6 mph - N/A   Clear
2:53 AM 73.0 °F - 69.1 °F 87% 30.10 in 10.0 mi East 4.6 mph - N/A   Clear
3:53 AM 73.0 °F - 69.1 °F 87% 30.10 in 10.0 mi ESE 4.6 mph - N/A   Clear
4:53 AM 72.0 °F - 69.1 °F 91% 30.09 in 10.0 mi ENE 3.5 mph - N/A   Clear
5:53 AM 71.1 °F - 69.1 °F 93% 30.10 in 9.0 mi Calm Calm - N/A   Clear
6:53 AM 71.1 °F - 69.1 °F 93% 30.14 in 8.0 mi East 4.6 mph - N/A   Clear
7:07 AM 71.6 °F - 69.8 °F 94% 30.16 in 8.0 mi ENE 4.6 mph - N/A   Scattered Clouds
7:18 AM 71.6 °F - 69.8 °F 94% 30.16 in 8.0 mi East 5.8 mph - N/A   Mostly Cloudy
7:53 AM 73.0 °F - 70.0 °F 90% 30.15 in 10.0 mi East 4.6 mph - N/A   Mostly Cloudy
8:34 AM 73.4 °F - 69.8 °F 88% 30.18 in 10.0 mi East 8.1 mph - N/A   Mostly Cloudy
8:53 AM 75.0 °F - 70.0 °F 84% 30.17 in 10.0 mi East 8.1 mph - N/A   Mostly Cloudy
9:04 AM 75.2 °F - 69.8 °F 83% 30.18 in 10.0 mi East 9.2 mph - N/A   Scattered Clouds
9:53 AM 79.0 °F - 71.1 °F 77% 30.17 in 10.0 mi East 10.4 mph - N/A   Clear
10:53 AM 82.0 °F 85.9 °F 70.0 °F 67% 30.16 in 10.0 mi East 8.1 mph - N/A   Partly Cloudy
11:53 AM 84.9 °F 89.4 °F 70.0 °F 61% 30.15 in 10.0 mi ENE 10.4 mph - N/A   Mostly Cloudy
12:49 PM 87.8 °F 92.6 °F 69.8 °F 55% 30.17 in 10.0 mi East 6.9 mph - N/A   Mostly Cloudy
12:53 PM 86.0 °F 90.1 °F 69.1 °F 57% 30.15 in 10.0 mi East 10.4 mph 17.3 mph N/A   Mostly Cloudy
1:53 PM 87.1 °F 91.3 °F 69.1 °F 55% 30.13 in 10.0 mi ESE 10.4 mph - N/A   Mostly Cloudy
2:53 PM 82.9 °F 87.5 °F 71.1 °F 67% 30.12 in 7.0 mi ENE 6.9 mph 25.3 mph 0.03 in Rain Rain
3:53 PM 90.0 °F 94.5 °F 69.1 °F 50% 30.09 in 10.0 mi East 10.4 mph - 0.00 in   Scattered Clouds
4:53 PM 79.0 °F - 69.1 °F 72% 30.10 in 9.0 mi SSE 18.4 mph 26.5 mph 0.00 in Rain , Thunderstorm Light Thunderstorms and Rain
5:00 PM 77.0 °F - 71.6 °F 83% 30.11 in 9.0 mi South 11.5 mph 26.5 mph 0.01 in Rain , Thunderstorm Light Thunderstorms and Rain
5:15 PM 78.8 °F - 71.6 °F 78% 30.11 in 10.0 mi SSW 3.5 mph - 0.01 in Rain Light Rain
5:53 PM 82.0 °F 87.4 °F 73.0 °F 74% 30.09 in 10.0 mi Calm Calm - 0.01 in   Clear
6:53 PM 84.9 °F 90.7 °F 72.0 °F 65% 30.09 in 9.0 mi North 3.5 mph - N/A   Clear
7:53 PM 82.9 °F 88.8 °F 73.0 °F 72% 30.10 in 10.0 mi Calm Calm - N/A   Clear
8:53 PM 81.0 °F 85.8 °F 73.0 °F 77% 30.12 in 9.0 mi SSE 11.5 mph 17.3 mph 0.00 in Rain Light Rain
9:15 PM 78.8 °F - 71.6 °F 78% 30.17 in 10.0 mi SSE 26.5 mph 34.5 mph 0.03 in Thunderstorm Overcast
9:53 PM 73.0 °F - 70.0 °F 90% 30.19 in 7.0 mi South 12.7 mph - 0.06 in Rain , Thunderstorm Heavy Thunderstorms and Rain
10:44 PM 73.4 °F - 69.8 °F 88% 30.20 in 10.0 mi South 4.6 mph - 0.14 in Rain Light Rain
10:53 PM 73.9 °F - 71.1 °F 91% 30.19 in 10.0 mi Calm Calm - 0.14 in Rain Light Rain
11:24 PM 73.4 °F - 71.6 °F 94% 30.21 in 10.0 mi Calm Calm - 0.00 in Thunderstorm Overcast
11:39 PM 75.2 °F - 71.6 °F 89% 30.21 in 10.0 mi Calm Calm - 0.00 in Rain Light Rain
11:53 PM 73.9 °F - 71.1 °F 91% 30.18 in 10.0 mi Calm Calm - 0.00 in   Mostly Cloudy